Weather History for Buckhannon, WV

Change the Weather History Date:

Saturday, March 3, 2012

  Actual Average (KEKN) Record (KEKN)
Temperature  
Mean Temperature 46 °F 36 °F  
Max Temperature 55 °F 47 °F 73 °F (1974)
Min Temperature 37 °F 24 °F -14 °F (1980)
Degree Days  
Heating Degree Days 19 29  
Month to date heating degree days 88  
Since 1 July heating degree days 4409  
Cooling Degree Days 0 0  
Month to date cooling degree days 0  
Year to date cooling degree days 0  
Moisture  
Dew Point 32 °F    
Average Humidity 63    
Maximum Humidity 100    
Minimum Humidity 32    
Precipitation  
Precipitation 0.00 in 0.11 in 1.11 in (1942)
Month to date precipitation 0.35  
Year to date precipitation 6.68  
Snow  
Snow 0.00 in - - ()
Month to date snowfall  
Since 1 September snowfall  
Snow Depth -    
Sea Level Pressure  
Sea Level Pressure 29.69 in    
Wind  
Wind Speed 13 mph (WSW)    
Max Wind Speed 24 mph    
Max Gust Speed 31 mph    
Visibility 10 miles    
Events      
T = Trace of Precipitation, MM = Missing Value Source: NWS Daily Summary

Daily Weather History Graph

Daily Weather History Graph

Search for Another Location

Airport:

Trip Planner

Search our weather history database for the weather conditions in past years. The results will help you decide how hot, cold, wet, or windy it might be!

Date:

Astronomy

Mar. 03, 2012 Rise Set
Actual Time 6:49 AM EST 6:16 PM EST
Civil Twilight 6:23 AM EST 6:43 PM EST
Nautical Twilight 5:52 AM EST 7:14 PM EST
Astronomical Twilight 5:21 AM EST 7:45 PM EST
Moon 1:26 PM EST (3/3) 3:23 AM EST (3/3)
Length of Visible Light 12h 19m
Length of Day
11h 26m
Waxing Gibbous, 75% of the Moon is Illuminated
Mar 3
Waxing Gibbous
Mar 8
Full
Mar 14
Last Quarter
Mar 22
New
Mar 30
First Quarter

Hourly Weather History & Observations

Time (EST) Temp. Windchill Dew Point Humidity Pressure Visibility Wind Dir Wind Speed Gust Speed Precip Events Conditions
12:15 AM 55.4 °F - 55.4 °F 100% 29.57 in 6.0 mi Calm Calm - N/A   Overcast
12:35 AM 53.6 °F - 53.6 °F 100% 29.56 in 10.0 mi South 16.1 mph - N/A   Overcast
12:55 AM 53.6 °F - 53.6 °F 100% 29.57 in 10.0 mi SW 10.4 mph - N/A   Overcast
1:15 AM 53.6 °F - 53.6 °F 100% 29.57 in 10.0 mi SW 10.4 mph - N/A   Overcast
1:35 AM 53.6 °F - 53.6 °F 100% 29.57 in 10.0 mi SW 10.4 mph - N/A   Overcast
1:55 AM 53.6 °F - 53.6 °F 100% 29.58 in 10.0 mi SW 10.4 mph - N/A   Mostly Cloudy
2:15 AM 53.6 °F - 53.6 °F 100% 29.57 in 10.0 mi SW 8.1 mph - N/A   Mostly Cloudy
2:35 AM 53.6 °F - 51.8 °F 94% 29.56 in 10.0 mi WSW 17.3 mph 20.7 mph N/A   Mostly Cloudy
2:55 AM 53.6 °F - 46.4 °F 77% 29.58 in 10.0 mi West 18.4 mph 25.3 mph N/A   Mostly Cloudy
3:15 AM 51.8 °F - 42.8 °F 71% 29.59 in 10.0 mi West 12.7 mph 24.2 mph N/A   Overcast
3:35 AM 50.0 °F - 41.0 °F 71% 29.59 in 10.0 mi WNW 11.5 mph 20.7 mph N/A   Overcast
3:55 AM 48.2 °F - 39.2 °F 71% 29.60 in 10.0 mi West 12.7 mph 23.0 mph N/A   Mostly Cloudy
4:15 AM 46.4 °F 40.1 °F 37.4 °F 71% 29.63 in 10.0 mi WNW 15.0 mph 21.9 mph N/A   Mostly Cloudy
4:35 AM 46.4 °F 39.5 °F 37.4 °F 71% 29.66 in 10.0 mi West 17.3 mph 21.9 mph N/A   Overcast
4:55 AM 44.6 °F 38.1 °F 37.4 °F 76% 29.67 in 10.0 mi West 13.8 mph 21.9 mph N/A   Overcast
5:15 AM 44.6 °F 37.2 °F 35.6 °F 71% 29.69 in 10.0 mi West 17.3 mph 27.6 mph N/A   Overcast
5:55 AM 41.0 °F 32.2 °F 33.8 °F 76% 29.70 in 10.0 mi West 18.4 mph 24.2 mph N/A   Clear
6:15 AM 41.0 °F 33.9 °F 33.8 °F 76% 29.72 in 10.0 mi WSW 12.7 mph 20.7 mph N/A   Clear
6:35 AM 39.2 °F 31.6 °F 33.8 °F 81% 29.73 in 10.0 mi West 12.7 mph 17.3 mph N/A   Partly Cloudy
6:55 AM 39.2 °F 32.0 °F 32.0 °F 75% 29.73 in 10.0 mi WSW 11.5 mph 20.7 mph N/A   Partly Cloudy
7:15 AM 39.2 °F 30.8 °F 32.0 °F 75% 29.73 in 10.0 mi WSW 15.0 mph - N/A   Clear
7:35 AM 37.4 °F 30.3 °F 32.0 °F 81% 29.73 in 10.0 mi WSW 10.4 mph - N/A   Clear
7:55 AM 37.4 °F 29.3 °F 30.2 °F 75% 29.73 in 10.0 mi West 12.7 mph 20.7 mph N/A   Clear
8:15 AM 37.4 °F 28.5 °F 30.2 °F 75% 29.74 in 10.0 mi WSW 15.0 mph 18.4 mph N/A   Clear
8:35 AM 37.4 °F 27.8 °F 30.2 °F 75% 29.75 in 10.0 mi West 17.3 mph 27.6 mph N/A   Clear
8:55 AM 37.4 °F 28.9 °F 30.2 °F 75% 29.76 in 10.0 mi WSW 13.8 mph 18.4 mph N/A   Clear
9:15 AM 39.2 °F 30.2 °F 32.0 °F 75% 29.76 in 10.0 mi WSW 17.3 mph 26.5 mph N/A   Clear
9:35 AM 39.2 °F 30.5 °F 30.2 °F 70% 29.75 in 10.0 mi SW 16.1 mph 21.9 mph N/A   Partly Cloudy
9:55 AM 39.2 °F 30.5 °F 30.2 °F 70% 29.75 in 10.0 mi SW 16.1 mph 24.2 mph N/A   Scattered Clouds
10:15 AM 39.2 °F 29.8 °F 28.4 °F 65% 29.75 in 10.0 mi SW 18.4 mph 24.2 mph N/A   Partly Cloudy
10:35 AM 41.0 °F 31.9 °F 30.2 °F 65% 29.76 in 10.0 mi SW 19.6 mph 24.2 mph N/A   Partly Cloudy
10:55 AM 42.8 °F 35.4 °F 28.4 °F 57% 29.76 in 10.0 mi SW 15.0 mph 21.9 mph N/A   Scattered Clouds
11:15 AM 42.8 °F 34.0 °F 26.6 °F 53% 29.75 in 10.0 mi SW 20.7 mph 26.5 mph N/A   Partly Cloudy
11:55 AM 44.6 °F 38.4 °F 26.6 °F 49% 29.74 in 10.0 mi WSW 12.7 mph 24.2 mph N/A   Clear
12:15 PM 44.6 °F 35.9 °F 24.8 °F 46% 29.73 in 10.0 mi WSW 23.0 mph 31.1 mph N/A   Clear
12:35 PM 44.6 °F 37.4 °F 26.6 °F 49% 29.72 in 10.0 mi WSW 16.1 mph 28.8 mph N/A   Clear
12:55 PM 44.6 °F 36.4 °F 23.0 °F 43% 29.71 in 10.0 mi SW 20.7 mph 27.6 mph N/A   Clear
1:15 PM 46.4 °F 39.0 °F 23.0 °F 40% 29.71 in 10.0 mi SW 19.6 mph 26.5 mph N/A   Clear
1:35 PM 46.4 °F 39.8 °F 23.0 °F 40% 29.69 in 10.0 mi WSW 16.1 mph 29.9 mph N/A   Clear
1:55 PM 46.4 °F 38.5 °F 23.0 °F 40% 29.69 in 10.0 mi WSW 21.9 mph 26.5 mph N/A   Clear
2:15 PM 46.4 °F 39.5 °F 21.2 °F 37% 29.68 in 10.0 mi WSW 17.3 mph 29.9 mph N/A   Clear
2:35 PM 46.4 °F 38.7 °F 21.2 °F 37% 29.68 in 10.0 mi WSW 20.7 mph 28.8 mph N/A   Clear
2:55 PM 48.2 °F - 21.2 °F 34% 29.68 in 10.0 mi West 24.2 mph 31.1 mph N/A   Clear
3:15 PM 48.2 °F - 21.2 °F 34% 29.68 in 10.0 mi West 12.7 mph 25.3 mph N/A   Clear
3:35 PM 46.4 °F 40.4 °F 19.4 °F 34% 29.69 in 10.0 mi West 13.8 mph 25.3 mph N/A   Clear
3:55 PM 48.2 °F - 19.4 °F 32% 29.70 in 10.0 mi West 16.1 mph 26.5 mph N/A   Clear
4:15 PM 48.2 °F - 19.4 °F 32% 29.70 in 10.0 mi West 12.7 mph 24.2 mph N/A   Partly Cloudy
4:55 PM 46.4 °F 40.7 °F 19.4 °F 34% 29.69 in 10.0 mi West 12.7 mph 24.2 mph N/A   Partly Cloudy
5:15 PM 46.4 °F 41.5 °F 19.4 °F 34% 29.70 in 10.0 mi West 10.4 mph 18.4 mph N/A   Clear
5:55 PM 44.6 °F 38.1 °F 19.4 °F 37% 29.72 in 10.0 mi West 13.8 mph 19.6 mph N/A   Clear
6:15 PM 44.6 °F 39.7 °F 19.4 °F 37% 29.72 in 10.0 mi WNW 9.2 mph - N/A   Clear
6:35 PM 42.8 °F 38.6 °F 19.4 °F 39% 29.74 in 10.0 mi WNW 6.9 mph 16.1 mph N/A   Clear
6:55 PM 42.8 °F 37.5 °F 21.2 °F 42% 29.74 in 10.0 mi West 9.2 mph 17.3 mph N/A   Clear
7:15 PM 42.8 °F 39.3 °F 21.2 °F 42% 29.75 in 10.0 mi WNW 5.8 mph - N/A   Clear
7:35 PM 42.8 °F 38.6 °F 21.2 °F 42% 29.75 in 10.0 mi WNW 6.9 mph - N/A   Clear
7:55 PM 41.0 °F 39.0 °F 21.2 °F 45% 29.75 in 10.0 mi WNW 3.5 mph - N/A   Clear
8:15 PM 39.2 °F - 21.2 °F 49% 29.75 in 10.0 mi Calm Calm - N/A   Clear
8:35 PM 39.2 °F 35.0 °F 23.0 °F 52% 29.77 in 10.0 mi WNW 5.8 mph - N/A   Clear
8:55 PM 39.2 °F - 23.0 °F 52% 29.77 in 10.0 mi Calm Calm - N/A   Clear
9:15 PM 39.2 °F - 23.0 °F 52% 29.78 in 10.0 mi Calm Calm - N/A   Clear
9:35 PM 37.4 °F - 23.0 °F 56% 29.77 in 10.0 mi Calm Calm - N/A   Clear
9:55 PM 37.4 °F 31.4 °F 23.0 °F 56% 29.78 in 10.0 mi West 8.1 mph - N/A   Clear
10:15 PM 37.4 °F - 23.0 °F 56% 29.78 in 10.0 mi Calm Calm - N/A   Clear
10:35 PM 37.4 °F 31.4 °F 23.0 °F 56% 29.79 in 10.0 mi NW 8.1 mph - N/A   Clear
10:55 PM 35.6 °F - 26.6 °F 70% 29.79 in 10.0 mi Calm Calm - N/A   Clear
11:15 PM 35.6 °F 30.7 °F 26.6 °F 70% 29.79 in 10.0 mi NNW 5.8 mph - N/A   Scattered Clouds
11:35 PM 33.8 °F 27.7 °F 26.6 °F 75% 29.78 in 10.0 mi North 6.9 mph - N/A   Mostly Cloudy
11:55 PM 33.8 °F 26.4 °F 26.6 °F 75% 29.79 in 10.0 mi NNW 9.2 mph - N/A   Mostly Cloudy